DLH942 EDDF-EGCC

Flight info

Callsign DLH942
Flight time N/A
Altitude 34000
Route OBOKA3W/25C OBOKA Z29 TORNU DCT BATAK DCT GALSO Q63 ERING L179 LAM UN57 WELIN T420 ELVOS
Aircraft A20N/M-SDE2E3FGHIRWXY/LB1

Departure

Time 2026-05-06 15:52
Airport Frankfurt Main Airport (EDDF)

Arrival

Time N/A
Airport Manchester Airport (EGCC)
Time Latitude Longitude Altitude Speed Heading
2026-05-06 15:20 50.04687 8.56702 365 ft 0 kts 117°
2026-05-06 15:40 50.04698 8.56673 364 ft 4 kts 135°
2026-05-06 15:40 50.04719 8.56652 362 ft 4 kts 169°
2026-05-06 15:41 50.04745 8.56651 365 ft 4 kts 194°
2026-05-06 15:41 50.04771 8.56665 367 ft 4 kts 206°
2026-05-06 15:41 50.04793 8.56684 366 ft 4 kts 207°
2026-05-06 15:41 50.04800 8.56689 366 ft 0 kts 204°
2026-05-06 15:44 50.04789 8.56681 366 ft 4 kts 205°
2026-05-06 15:44 50.04761 8.56655 363 ft 5 kts 220°
2026-05-06 15:45 50.04719 8.56583 365 ft 6 kts 232°
2026-05-06 15:45 50.04717 8.56580 365 ft 1 kts 231°
2026-05-06 15:45 50.04686 8.56544 360 ft 10 kts 210°
2026-05-06 15:45 50.04605 8.56480 359 ft 13 kts 204°
2026-05-06 15:46 50.04530 8.56414 364 ft 13 kts 227°
2026-05-06 15:46 50.04489 8.56272 357 ft 15 kts 251°
2026-05-06 15:46 50.04457 8.56133 362 ft 13 kts 250°
2026-05-06 15:46 50.04399 8.56034 357 ft 13 kts 185°
2026-05-06 15:47 50.04306 8.56088 360 ft 16 kts 136°
2026-05-06 15:47 50.04263 8.56224 357 ft 14 kts 145°
2026-05-06 15:47 50.04171 8.56281 353 ft 14 kts 152°
2026-05-06 15:47 50.04160 8.56417 353 ft 14 kts 69°
2026-05-06 15:48 50.04192 8.56549 357 ft 13 kts 70°
2026-05-06 15:48 50.04229 8.56710 355 ft 18 kts 69°
2026-05-06 15:48 50.04273 8.56884 356 ft 17 kts 70°
2026-05-06 15:48 50.04314 8.57062 357 ft 20 kts 68°
2026-05-06 15:49 50.04372 8.57304 355 ft 25 kts 69°
2026-05-06 15:49 50.04435 8.57568 348 ft 26 kts 71°
2026-05-06 15:49 50.04496 8.57826 344 ft 26 kts 69°
2026-05-06 15:49 50.04546 8.58036 350 ft 22 kts 70°
2026-05-06 15:50 50.04626 8.58368 338 ft 31 kts 69°
2026-05-06 15:50 50.04641 8.58551 330 ft 2 kts 132°
2026-05-06 15:50 50.04636 8.58558 331 ft 3 kts 132°
2026-05-06 15:51 50.04606 8.58586 329 ft 7 kts 155°
2026-05-06 15:51 50.04556 8.58616 327 ft 8 kts 159°
2026-05-06 15:51 50.04500 8.58614 332 ft 13 kts 216°
2026-05-06 15:51 50.04442 8.58412 332 ft 45 kts 251°
2026-05-06 15:52 50.04245 8.57547 350 ft 125 kts 250°
2026-05-06 15:52 50.03860 8.55968 562 ft 172 kts 251°
2026-05-06 15:52 50.03411 8.54158 1244 ft 188 kts 250°
2026-05-06 15:52 50.02928 8.52207 2036 ft 199 kts 251°
2026-05-06 15:53 50.02416 8.50145 2830 ft 211 kts 248°
2026-05-06 15:53 50.01610 8.48187 3617 ft 224 kts 225°
2026-05-06 15:53 50.00229 8.46915 4246 ft 241 kts 199°
2026-05-06 15:53 49.98508 8.46666 4754 ft 255 kts 184°
2026-05-06 15:54 49.96709 8.46588 5569 ft 259 kts 182°
2026-05-06 15:54 49.94903 8.46495 6630 ft 260 kts 190°
2026-05-06 15:54 49.93155 8.45806 7628 ft 261 kts 200°
2026-05-06 15:54 49.91465 8.44720 8603 ft 264 kts 212°
2026-05-06 15:55 49.90230 8.42742 9730 ft 258 kts 239°
2026-05-06 15:55 49.89353 8.40305 10682 ft 264 kts 243°
2026-05-06 15:55 49.88608 8.37558 11094 ft 290 kts 251°
2026-05-06 15:55 49.88159 8.34362 11442 ft 318 kts 265°
2026-05-06 15:56 49.88342 8.30823 11862 ft 341 kts 278°
2026-05-06 15:56 49.88947 8.27159 12306 ft 363 kts 290°
2026-05-06 15:56 49.90202 8.23651 12795 ft 381 kts 302°
2026-05-06 15:56 49.91835 8.20303 13318 ft 397 kts 308°
2026-05-06 15:57 49.93717 8.17208 13660 ft 394 kts 314°
2026-05-06 15:57 49.95789 8.14318 13845 ft 407 kts 318°
2026-05-06 15:57 49.97948 8.11425 13982 ft 410 kts 317°
2026-05-06 15:57 50.00083 8.08444 14260 ft 418 kts 316°
2026-05-06 15:58 50.02243 8.05389 15023 ft 420 kts 316°
2026-05-06 15:58 50.04429 8.02349 15816 ft 424 kts 316°
2026-05-06 15:58 50.06655 7.99299 16527 ft 429 kts 316°
2026-05-06 15:58 50.08922 7.96218 17186 ft 435 kts 317°
2026-05-06 15:59 50.11219 7.93111 17896 ft 439 kts 317°
2026-05-06 15:59 50.13539 7.89977 18485 ft 445 kts 317°
2026-05-06 15:59 50.15888 7.86804 19099 ft 448 kts 317°
2026-05-06 15:59 50.18249 7.83617 19809 ft 449 kts 317°
2026-05-06 16:00 50.20614 7.80419 20501 ft 451 kts 316°
2026-05-06 16:00 50.22992 7.77205 21235 ft 451 kts 317°
2026-05-06 16:00 50.25501 7.74230 21824 ft 458 kts 325°
2026-05-06 16:00 50.28294 7.71887 22404 ft 464 kts 332°
2026-05-06 16:01 50.31290 7.69781 23012 ft 468 kts 334°
2026-05-06 16:01 50.34284 7.67745 23605 ft 470 kts 334°
2026-05-06 16:01 50.37228 7.65746 24468 ft 463 kts 334°
2026-05-06 16:01 50.40157 7.63749 25372 ft 456 kts 333°
2026-05-06 16:02 50.43040 7.61776 26300 ft 448 kts 333°
2026-05-06 16:02 50.45868 7.59835 27169 ft 441 kts 333°
2026-05-06 16:02 50.48680 7.57898 27778 ft 441 kts 333°
2026-05-06 16:02 50.51504 7.55947 28256 ft 443 kts 333°
2026-05-06 16:03 50.54331 7.53974 28701 ft 446 kts 331°
2026-05-06 16:03 50.57064 7.51637 29120 ft 446 kts 325°
2026-05-06 16:03 50.59701 7.49019 29532 ft 449 kts 323°
2026-05-06 16:03 50.62326 7.46333 29961 ft 452 kts 324°
2026-05-06 16:04 50.64966 7.43619 30419 ft 452 kts 326°
2026-05-06 16:04 50.67588 7.40924 30964 ft 449 kts 325°
2026-05-06 16:04 50.70160 7.38268 31459 ft 447 kts 324°
2026-05-06 16:04 50.72651 7.35240 31890 ft 446 kts 316°
2026-05-06 16:05 50.74746 7.31748 32306 ft 443 kts 306°
2026-05-06 16:05 50.76457 7.27729 32733 ft 440 kts 298°
2026-05-06 16:05 50.77953 7.23513 33182 ft 438 kts 296°
2026-05-06 16:05 50.79365 7.19252 33614 ft 437 kts 294°
2026-05-06 16:06 50.80743 7.14947 33841 ft 439 kts 294°
2026-05-06 16:06 50.82110 7.10631 33858 ft 438 kts 294°
2026-05-06 16:06 50.84844 7.02027 33865 ft 438 kts 294°
2026-05-06 16:07 50.87602 6.93426 33852 ft 438 kts 295°
2026-05-06 16:07 50.90372 6.84808 33854 ft 438 kts 295°
2026-05-06 16:08 50.93135 6.76196 33854 ft 438 kts 294°
2026-05-06 16:08 50.95875 6.67618 33854 ft 438 kts 294°
2026-05-06 16:09 50.98621 6.58989 33863 ft 438 kts 294°
2026-05-06 16:09 51.01367 6.50329 33857 ft 439 kts 294°
2026-05-06 16:10 51.04107 6.41658 33852 ft 440 kts 294°
2026-05-06 16:10 51.06846 6.32958 33857 ft 442 kts 294°
2026-05-06 16:11 51.09597 6.24189 33869 ft 440 kts 294°
2026-05-06 16:11 51.12321 6.15479 33887 ft 440 kts 294°
2026-05-06 16:12 51.14540 6.06434 33886 ft 439 kts 284°
2026-05-06 16:12 51.16145 5.97224 33875 ft 439 kts 283°
2026-05-06 16:13 51.17669 5.87810 33888 ft 439 kts 284°
2026-05-06 16:13 51.20103 5.78867 33875 ft 442 kts 297°
2026-05-06 16:14 51.23172 5.70382 33877 ft 442 kts 299°